Location: Killam
(52.7910°N, 111.8608°W)
Time: 23:54:53
(UTC+00:00)

A-11 Canister half - Pass Details

Date: 21 February 2026
Orbit: 1525 x 1683 km, 47.3° (Epoch: 9 March)

Event Time Altitude Azimuth Distance (km) Brightness Sun altitude
Rises 21:48:56 0° 200° (SSW) 4,749 13.0 21.2°
Reaches altitude 10° 21:52:41 10° 189° (S) 3,744 12.4 20.9°
Maximum altitude 21:59:57 26° 137° (SE) 2,668 10.6 20.3°
Drops below altitude 10° 22:07:08 10° 86° (E) 3,698 10.7 19.6°
Sets 22:10:47 0° 75° (ENE) 4,679 11.1 19.3°
